CZ-4C DEB, 44617

Orbit data source: Space-Track

CZ-4C DEB, 44617 is space debris in LEO originally from a launch on Tue, 10 Apr 2018 UTC launched from the Taiyaun Space Center, China (TSC). Debris objects in space refer to the collection of defunct objects orbiting the Earth. Examples of debris include non-operational satellites, rocket bodies, and fragments generated from explosions, collisions, or faulty payload assembly.

Loading next visibility...
Identifier
44617, 2018-034J
Orbit
LEO
Country
Flag of CNCN / PRC
Related business
Manufacturer
Unknown
Mission
Spacecraft
Bus & Motor
Unknown
Mass
Unknown
Launch date (UTC)
2018-04-10 (8 years ago)
Launch vehicle
Unknown
Launch site
Taiyaun Space Center, China (TSC)
Object type
Payload
Rocket body
Debris
Shape & HBR
Unknown shape, 0.1 m
Radar Cross Section
Small (<0.1 m²)

Expand to show TLE details & history
Last TLE update: 3 days ago

TLE from 3 days ago
0 CZ-4C DEB
1 44617U 18034J   26033.53334536 -.00000073  00000-0  24984-4 0  9996
2 44617  63.3982 134.0214 0240435   7.0452 353.3852 13.41003575376189
Epoch: 2026-02-02T12:48Z
TLE epoch observation values (Epoch: 2026-02-02T12:48:01.039Z)
Latitude
-0.00003°
Longitude
169.28979°
Altitude
928.612 km
Speed
7.476 km/s
True Right ascension
08h 56m 05s
True Declination
0° 00' 00"
Sunlit
Object was in full shadow at epoch
Visualization orbit readout
Latitude
Unknown
Longitude
Unknown
Altitude
Unknown
Speed
Unknown
Apparent Right ascension
Unknown
Apparent Declination
Unknown
Sunlit
N/A
Visualization observer readout
Local Sidereal Time
13:09:44
Azimuth
Unknown
Elevation
Unknown
Doppler factor
Unknown
Orbital elements
Apogee altitude
1,284.28 km
Perigee altitude
924.469 km
Semi-major axis
7,482.511 km
Eccentricity
0.02404
Inclination
63.3982°
RAAN
134.0214°
Arg. of periapsis
7.0452°
True anomaly
353.05807°
Mean anomaly
353.3852°
Eccentric anomaly
353.22263°
Mean motion
3.3533 °/min
Orbital period
107.36 mins
BSTAR
0.000024984
Loading maneuver chart data...
Computing Atmospheric mass density...
Loading historical data...
Loading historical data...
Loading historical data...
Loading historical data...
Loading historical data...
Loading historical data...
Loading historical data...

Documentation

Showing up to 5 results
|